Date String (YYYY-MM-DD hh:mm:ss) UTC,Instrument flags,Ambient pressure (hPa),Sample flow (lpm),Bypass flow (lpm),Sample temperature (°C),Ambient temperature (°C),ASC tube jacket temperature (°C),LED temperature (°C),Box temperature (°C),Sample RH (%),Span deviation,Mass concentration (μg/m³),Mass concentration (μg/m³),Mass concentration (μg/m³)
DateTimeUTC,F1_M11,P_M11,Q1_M11,Q2_M11,T1_M11,T2_M11,T3_M11,T4_M11,T5_M11,U1_M11,ZSPAN_M11,X0_M11,X2_M11,X1_M11
2022-06-24 04:00:00,,0824.9,4.99,0.00,29.0,27.4,00.0,37.8,30.8,16.7,0000.0,0012.12,0004.53,0003.81
2022-06-24 04:01:00,,0825.0,5.00,0.00,29.0,27.6,00.0,37.8,30.9,16.6,0000.0,0012.17,0004.58,0003.84
2022-06-24 04:02:00,,0825.0,5.00,0.00,29.0,27.7,00.0,37.8,30.9,16.7,0000.0,0012.59,0004.60,0003.86
2022-06-24 04:03:00,,0825.0,5.00,0.00,29.0,27.8,00.0,37.8,31.0,16.7,0000.0,0012.52,0004.60,0003.87
2022-06-24 04:04:00,,0825.0,5.00,0.00,29.0,28.0,00.0,37.8,31.0,16.6,0000.0,0011.55,0004.65,0003.91
2022-06-24 04:05:00,,0825.0,5.01,0.00,29.1,28.1,00.0,37.8,31.1,16.6,0000.0,0010.45,0004.68,0003.94
2022-06-24 04:06:00,,0825.0,5.01,0.00,29.1,28.1,00.0,37.8,31.1,16.5,0000.0,0010.34,0004.73,0003.97
2022-06-24 04:07:00,,0825.0,4.99,0.00,29.1,28.2,00.0,37.9,31.1,16.3,0000.0,0010.33,0004.71,0004.01
2022-06-24 04:08:00,,0825.1,5.00,0.00,29.2,28.3,00.0,37.9,31.2,16.4,0000.0,0010.47,0004.73,0004.05
2022-06-24 04:09:00,,0825.1,5.01,0.00,29.2,28.4,00.0,37.9,31.2,16.3,0000.0,0010.47,0004.81,0004.09
2022-06-24 04:10:00,,0825.1,5.00,0.00,29.2,28.4,00.0,37.9,31.3,16.3,0000.0,0010.39,0004.88,0004.13
2022-06-24 04:11:00,,0825.2,4.99,0.00,29.3,28.4,00.0,38.0,31.3,16.3,0000.0,0010.58,0004.92,0004.16
2022-06-24 04:12:00,,0825.1,5.00,0.00,29.3,27.8,00.0,37.9,31.2,16.3,0000.0,0010.51,0004.95,0004.19
2022-06-24 04:13:00,,0825.1,5.01,0.00,29.2,27.4,00.0,37.9,31.0,16.4,0000.0,0010.16,0004.99,0004.22
2022-06-24 04:14:00,,0825.1,5.00,0.00,29.2,27.3,00.0,37.9,31.0,16.2,0000.0,0009.65,0005.04,0004.25
2022-06-24 04:15:00,,0825.2,4.99,0.00,29.1,27.4,00.0,37.9,31.0,16.1,0000.0,0009.71,0005.09,0004.29
2022-06-24 04:16:00,,0825.1,5.00,0.00,29.1,27.5,00.0,37.9,31.0,16.2,0000.0,0010.10,0005.14,0004.33
2022-06-24 04:17:00,,0825.2,5.00,0.00,29.1,27.6,00.0,37.9,31.0,16.3,0000.0,0010.04,0005.15,0004.37
2022-06-24 04:18:00,,0825.2,5.00,0.00,29.1,27.7,00.0,37.9,31.0,16.2,0000.0,0010.22,0005.18,0004.39
2022-06-24 04:19:00,,0825.2,5.00,0.00,29.2,27.9,00.0,37.9,31.1,16.2,0000.0,0010.59,0005.22,0004.42
2022-06-24 04:20:00,,0825.2,4.99,0.00,29.2,28.0,00.0,37.9,31.1,16.2,0000.0,0010.66,0005.25,0004.44
2022-06-24 04:21:00,,0825.2,5.00,0.00,29.2,28.1,00.0,37.9,31.2,15.9,0000.0,0011.25,0005.26,0004.47
2022-06-24 04:22:00,,0825.2,5.00,0.00,29.2,28.2,00.0,38.0,31.2,15.9,0000.0,0011.91,0005.29,0004.50
2022-06-24 04:23:00,,0825.2,5.02,0.00,29.3,28.3,00.0,38.0,31.3,15.8,0000.0,0012.27,0005.37,0004.53
2022-06-24 04:24:00,,0825.2,5.00,0.00,29.3,28.4,00.0,38.0,31.3,15.7,0000.0,0012.87,0005.41,0004.56
2022-06-24 04:25:00,,0825.2,5.00,0.00,29.3,28.5,00.0,38.0,31.3,15.7,0000.0,0013.39,0005.44,0004.59
2022-06-24 04:26:00,,0825.2,5.01,0.00,29.4,28.2,00.0,38.0,31.3,15.7,0000.0,0013.68,0005.47,0004.59
2022-06-24 04:27:00,,0825.2,5.00,0.00,29.3,27.5,00.0,38.0,31.1,15.8,0000.0,0013.61,0005.51,0004.58
2022-06-24 04:28:00,,0825.2,4.99,0.00,29.3,27.4,00.0,38.0,31.0,15.9,0000.0,0014.20,0005.55,0004.58
2022-06-24 04:29:00,,0825.2,5.00,0.00,29.2,27.4,00.0,38.0,31.0,16.0,0000.0,0014.20,0005.58,0004.58
2022-06-24 04:30:00,,0825.2,5.01,0.00,29.2,27.5,00.0,38.0,31.0,16.0,0000.0,0013.71,0005.60,0004.58
2022-06-24 04:31:00,,0825.2,4.99,0.00,29.2,27.6,00.0,38.0,31.0,16.0,0000.0,0013.41,0005.58,0004.59
2022-06-24 04:32:00,,0825.2,5.00,0.00,29.2,27.7,00.0,38.0,31.1,16.0,0000.0,0013.32,0005.58,0004.58
2022-06-24 04:33:00,,0825.2,5.00,0.00,29.2,27.9,00.0,38.0,31.1,16.1,0000.0,0013.11,0005.56,0004.57
2022-06-24 04:34:00,,0825.2,5.00,0.00,29.2,28.0,00.0,38.0,31.1,16.0,0000.0,0013.04,0005.53,0004.57
2022-06-24 04:35:00,,0825.2,5.00,0.00,29.3,28.1,00.0,38.0,31.2,15.8,0000.0,0012.28,0005.45,0004.56
2022-06-24 04:36:00,,0825.2,4.99,0.00,29.3,28.2,00.0,38.0,31.2,15.8,0000.0,0011.92,0005.45,0004.55
2022-06-24 04:37:00,,0825.2,4.98,0.00,29.3,28.3,00.0,38.0,31.3,15.7,0000.0,0011.79,0005.44,0004.57
2022-06-24 04:38:00,,0825.2,5.01,0.00,29.3,28.4,00.0,38.1,31.3,15.7,0000.0,0011.67,0005.40,0004.57
2022-06-24 04:39:00,,0825.2,5.00,0.00,29.4,28.5,00.0,38.1,31.4,15.7,0000.0,0011.30,0005.38,0004.58
2022-06-24 04:40:00,,0825.2,4.99,0.00,29.4,28.1,00.0,38.1,31.3,15.6,0000.0,0011.06,0005.35,0004.60
2022-06-24 04:41:00,,0825.1,5.00,0.00,29.3,27.5,00.0,38.0,31.1,15.6,0000.0,0011.02,0005.36,0004.62
2022-06-24 04:42:00,,0825.1,5.00,0.00,29.3,27.4,00.0,38.0,31.1,15.6,0000.0,0011.44,0005.38,0004.63
2022-06-24 04:43:00,,0825.1,5.01,0.00,29.2,27.4,00.0,38.0,31.0,15.7,0000.0,0011.65,0005.38,0004.66
2022-06-24 04:44:00,,0825.2,4.99,0.00,29.2,27.5,00.0,38.0,31.0,15.7,0000.0,0011.07,0005.43,0004.68
2022-06-24 04:45:00,,0825.2,4.99,0.00,29.2,27.6,00.0,38.0,31.1,15.8,0000.0,0011.20,0005.48,0004.71
2022-06-24 04:46:00,,0825.2,5.00,0.00,29.2,27.7,00.0,38.0,31.1,15.7,0000.0,0011.36,0005.53,0004.74
2022-06-24 04:47:00,,0825.1,5.00,0.00,29.2,27.9,00.0,38.0,31.1,15.5,0000.0,0011.31,0005.56,0004.76
2022-06-24 04:48:00,,0825.2,5.00,0.00,29.3,28.0,00.0,38.0,31.2,15.5,0000.0,0011.27,0005.56,0004.77
2022-06-24 04:49:00,,0825.1,5.01,0.00,29.3,28.1,00.0,38.0,31.2,15.5,0000.0,0011.27,0005.62,0004.79
2022-06-24 04:50:00,,0825.1,5.00,0.00,29.3,28.2,00.0,38.0,31.2,15.4,0000.0,0010.98,0005.62,0004.80
2022-06-24 04:51:00,,0825.2,5.00,0.00,29.3,28.3,00.0,38.1,31.3,15.3,0000.0,0010.99,0005.64,0004.80
2022-06-24 04:52:00,,0825.1,5.00,0.00,29.4,28.4,00.0,38.1,31.3,15.4,0000.0,0011.03,0005.66,0004.81
2022-06-24 04:53:00,,0825.1,5.00,0.00,29.4,28.5,00.0,38.1,31.3,15.2,0000.0,0010.88,0005.75,0004.83
2022-06-24 04:54:00,,0825.1,4.99,0.00,29.4,27.9,00.0,38.1,31.2,15.2,0000.0,0010.25,0005.76,0004.84
2022-06-24 04:55:00,,0825.1,5.00,0.00,29.3,27.4,00.0,38.0,31.1,15.1,0000.0,0010.26,0005.76,0004.85
2022-06-24 04:56:00,,0825.1,5.00,0.00,29.3,27.3,00.0,38.0,31.1,15.0,0000.0,0010.03,0005.72,0004.85
2022-06-24 04:57:00,,0825.1,5.01,0.00,29.2,27.4,00.0,38.0,31.0,14.9,0000.0,0010.07,0005.75,0004.85
2022-06-24 04:58:00,,0825.1,5.00,0.00,29.2,27.5,00.0,38.0,31.0,15.0,0000.0,0010.19,0005.80,0004.86
2022-06-24 04:59:00,,0825.1,5.00,0.00,29.2,27.6,00.0,38.0,31.1,14.9,0000.0,0010.12,0005.84,0004.88
